Regional Weather Roundup
Issued by NWS

Home | Current Version | Previous Version | Text Only | Print | Product List | Glossary Off
Versions: 1 2 3 4 5 6 7 8 9 10 11 12 13 14 15 16 17 18 19 20 21 22 23 24 25 26 27 28 29 30 31 32 33 34 35 36 37 38 39 40 41 42 43 44 45 46 47 48 49 50

000
ASUS43 KFSD 311810
RWRSD

WEATHER ROUNDUP FOR SOUTH DAKOTA
NATIONAL WEATHER SERVICE SIOUX FALLS SD
100 PM CDT FRI OCT 31 2014

NOTE: "FAIR" INDICATES FEW OR NO CLOUDS BELOW 12,000 FEET WITH NO
SIGNIFICANT WEATHER AND/OR OBSTRUCTIONS TO VISIBILITY.


SDZ001>005-009-010-012>017-311900-
NORTHWEST AND NORTH CENTRAL SOUTH DAKOTA

CITY           SKY/WX    TMP DP  RH WIND       PRES   REMARKS
BUFFALO          N/A     40  30  67 SE28G36   30.10F
FAITH            N/A     35  23  61 SE23G32   30.31F WCI  23
MOBRIDGE       SUNNY     37  18  46 S20G28    30.44F
$$

SDZ012>016-024>037-041>051-057-063-072>074-311900-
SOUTHWEST AND SOUTH CENTRAL SOUTH DAKOTA

CITY           SKY/WX    TMP DP  RH WIND       PRES   REMARKS
RAPID CTY ARPT PTSUNNY   40  30  67 S22G31    30.27F
PIERRE         SUNNY     37  16  42 SE16      30.47F
CUSTER         SUNNY     43  26  51 S9G20     30.23F
ELLSWORTH AFB  MOSUNNY   39  31  72 S31G39    30.24F
PHILIP         MOSUNNY   41  23  48 SE14G23   30.38F
PINE RIDGE     SUNNY     44  28  53 S16       30.31F
SPEARFISH      FAIR      48  37  66 N5        30.11F
WINNER         FAIR      38  14  37 S14       30.50F
$$

SDZ004>011-016>023-039-040-311900-
NORTHEAST SOUTH DAKOTA

CITY           SKY/WX    TMP DP  RH WIND       PRES   REMARKS
ABERDEEN       SUNNY     35  17  47 SE6       30.54F
WATERTOWN      SUNNY     32  19  58 VRB7      30.53F WCI  26
SISSETON         N/A     33  21  61 S7        30.55F WCI  27
$$

SDZ017-020-022-023-036>040-048>070-311900-
SOUTHEAST SOUTH DAKOTA

CITY           SKY/WX    TMP DP  RH WIND       PRES   REMARKS
SIOUX FALLS    MOSUNNY   36  20  52 E6        30.56F
HURON          SUNNY     35  18  49 S7        30.56F WCI  29
CHAMBERLAIN    SUNNY     35  15  43 SE9       30.53F WCI  28
MITCHELL       SUNNY     35  20  54 SE9       30.57F WCI  28
YANKTON        SUNNY     36  18  48 E6        30.58F
$$

ABBREVIATIONS USED IN REMARKS
   TC - TEMPERATURE IN CELSIUS
  WCI - WIND CHILL INDEX
   HX - HEAT INDEX
  VSB - VISIBILITY




USA.gov is the U.S. government's official web portal to all federal, state and local government web resources and services.